Dewpoint
6 7 7 7 7 6 5 4 3 3 3 5 5 5 7 10 11 11 13 13 11 10 10 9 7 6 6 5 6 7 6 7 7 7 8 9 10 10 11 10 9 10 10 12
7 8 9 9 9 9 8 8 8 9 7 2 3 2 2 3 3 6 9 8 8 8 8 7 6 6 5 5 6 5 5 5 6 7 8 9 9 9 8 9 9 10 10 11
4 4 6 2 3 4 3 0 2 2 1 -1 -0 2 2 0 1 3 6 3 3 4 5 5 5 5 4 5 6 4 4 4 5 5 6 8 8 8 8 8 9 10 10 11
5 5 -4 -3 2 2 0 -1 -0 -0 -0 -0 1 -1 -2 2 3 4 2 2 3 5 7 6 6 6 5 5 5 5 4 4 4 4 5 6 7 7 8 8 9 10 10 11
4 1 -2 0 -0 -2 -3 -3 -0 -1 -1 -1 -1 -4 -2 3 2 2 2 4 4 7 8 7 7 7 6 6 6 5 5 4 3 4 4 5 5 5 7 9 9 10 10 11
3 -2 -6 -5 -1 -1 -3 -7 -0 1 -1 -1 1 -5 -7 3 1 2 2 3 4 4 6 7 6 8 7 5 5 5 5 5 4 4 4 5 5 5 7 9 10 10 11 11
-1 -1 -4 -2 -2 0 -7 -9 -1 1 -0 1 -1 -2 -1 1 2 1 2 1 1 3 4 4 6 4 4 4 4 5 6 5 4 4 4 5 5 7 8 8 9 11 10 10
-6 -7 -9 -2 -1 -4 -4 -2 -2 -1 1 0 -0 0 1 1 -0 -1 -1 -1 -0 1 1 2 3 4 3 3 3 5 3 3 4 4 4 5 5 6 7 9 10 9 9 8
-5 -7 -4 -3 -5 -4 -1 -1 0 1 -2 -1 -1 -2 -3 -1 -1 -2 -3 -3 -2 -1 -1 0 1 2 1 2 3 1 3 3 2 3 4 5 5 6 8 8 9 8 8 7
-6 -6 -3 -4 -2 -1 1 3 -0 -2 -3 -3 -5 -5 -5 -4 -4 -5 -5 -4 -3 -3 -4 -3 -1 1 1 2 2 2 2 3 3 4 5 6 6 7 8 8 8 9 8 10
-6 -8 -8 -7 -5 -3 -3 -3 -3 -3 -4 -4 -4 -3 -4 -4 -5 -5 -4 -3 -2 -3 -3 -2 -2 -1 1 1 1 2 3 4 4 5 4 5 6 6 8 10 11 11 11 9
-17 -13 -8 -9 -9 -8 -7 -6 -5 -5 -4 -4 -2 -2 -3 -3 -3 -2 -2 -1 -2 -2 -1 0 1 2 1 2 2 3 3 3 3 4 5 5 5 6 8 7 8 7 7 9
-12 -14 -12 -11 -9 -6 -5 -5 -4 -4 -3 -3 -2 -1 -1 -1 -1 -0 1 1 1 1 1 0 1 1 1 2 3 3 3 3 3 4 4 5 5 5 5 8 6 5 6 8
-9 -8 -8 -8 -7 -8 -7 -7 -5 -4 -3 -3 -3 -3 -3 -3 -3 -2 -2 -2 -1 -1 -1 -1 -0 0 1 2 2 2 2 4 5 5 4 3 4 5 8 6 3 3 5 7
-8 -8 -7 -7 -5 -5 -4 -3 -3 -4 -4 -4 -4 -4 -4 -3 -3 -3 -2 -2 -1 -1 -1 -1 -1 -1 -0 0 1 2 2 3 3 3 4 4 7 10 7 5 4 4 5 4
-13 -10 -8 -6 -6 -5 -4 -4 -3 -4 -4 -3 -2 -2 -1 -1 -1 -0 -0 -0 -1 -1 -2 -2 -2 -2 -1 0 1 1 2 5 6 7 7 6 7 9 6 4 4 6 3 4
-8 -3 -2 -1 -1 -1 -2 -2 -2 -1 -1 -1 -1 -0 1 2 2 2 2 3 3 1 1 1 1 1 1 2 2 2 3 3 5 6 7 6 5 8 6 6 6 3 3 4
-5 -3 -1 -0 0 1 2 2 1 1 2 2 3 4 3 2 2 1 1 2 2 3 4 3 3 2 3 3 3 4 4 4 4 5 5 6 7 8 9 5 4 3 4 4
7 6 6 6 5 5 5 4 4 4 4 3 4 3 3 2 3 3 3 3 3 2 1 1 1 2 5 7 5 6 6 5 5 6 6 7 7 7 5 4 4 4 4 3
7 7 7 7 7 7 5 5 5 5 4 3 3 3 2 1 1 1 2 2 2 1 2 2 2 2 3 3 4 5 6 5 6 7 6 6 7 7 6 4 3 3 3 3
8 8 7 7 6 6 5 4 5 5 4 4 4 3 3 2 1 1 1 0 -1 -1 2 4 5 7 8 6 6 5 1 -0 0 4 6 6 6 6 3 3 3 3 2 3
9 8 8 7 7 6 6 6 8 7 6 5 4 4 4 3 3 2 2 1 -0 1 3 7 6 4 3 5 5 4 3 4 5 6 6 7 6 3 2 3 3 3 3 2
9 9 9 9 8 8 8 7 7 6 5 5 4 4 5 4 4 3 1 -0 0 1 2 5 5 4 5 7 10 10 9 8 8 8 7 5 2 2 2 3 3 3 2 2
10 10 10 10 10 8 6 6 5 5 5 5 6 6 6 5 4 3 3 4 3 4 4 5 8 5 6 9 8 9 8 6 7 6 5 5 3 2 2 3 2 2 2 2
10 10 10 9 8 8 9 10 9 8 8 7 6 6 5 4 4 5 5 4 4 6 7 4 3 4 8 5 2 3 4 5 5 4 2 1 2 3 3 2 2 2 3 0
10 9 10 10 10 10 8 9 9 9 8 6 4 6 8 9 9 8 8 7 8 7 7 6 6 5 3 3 2 1 1 2 1 2 4 4 3 2 0 -0 1 1 0 -0
10 7 8 7 7 8 10 10 7 5 5 4 6 2 3 5 6 6 4 6 6 7 7 6 7 6 7 6 4 3 3 2 1 3 3 1 0 1 2 2 1 -0 -1 -2
Wind_Speed
13 10 10 18 16 17 23 28 28 35 29 21 4 8 8 8 9 7 6 4 6 5 5 5 8 9 11 13 14 12 15 14 16 15 16 17 17 17 18 18 19 19 21 21
16 13 16 29 22 20 25 25 30 29 27 2 1 2 4 6 8 9 9 5 6 7 9 11 12 13 13 15 15 12 16 16 15 15 16 17 17 18 19 19 19 19 20 21
18 8 10 22 15 22 10 4 7 22 9 3 6 7 8 13 13 12 4 7 12 14 14 15 15 14 16 16 15 17 17 17 16 15 17 17 18 19 19 19 19 20 21 21
15 2 18 3 4 4 3 5 3 5 2 4 6 9 12 5 1 4 10 14 16 15 16 16 15 15 16 15 16 17 18 17 17 17 18 18 18 19 20 18 19 20 21 22
7 10 11 3 2 2 1 7 5 3 3 4 9 11 6 6 3 9 14 17 18 18 18 17 16 16 15 16 16 16 18 18 19 18 20 19 20 20 19 19 20 20 21 23
3 7 10 3 2 5 4 13 2 2 4 8 7 14 12 9 14 17 17 18 20 20 18 16 18 17 16 17 17 19 19 19 18 18 20 21 21 21 20 19 21 21 23 22
16 13 8 6 3 4 3 9 3 4 6 8 10 11 16 18 17 16 15 16 17 18 17 17 17 17 18 18 18 20 18 18 19 18 19 19 20 19 20 21 21 21 22 22
2 5 14 5 3 5 3 4 7 9 9 12 15 17 17 18 18 16 17 18 19 18 18 18 17 17 19 19 19 17 18 18 19 18 17 17 20 21 19 20 20 20 21 23
7 7 3 8 10 7 6 12 11 9 11 13 17 19 21 21 19 20 20 19 17 18 20 17 16 15 19 19 18 17 16 17 20 18 17 17 19 20 18 17 17 19 19 22
5 2 7 9 10 11 5 9 11 13 15 16 22 22 24 22 22 22 22 22 20 19 21 23 17 16 18 19 14 16 18 18 17 17 19 17 14 16 17 17 18 18 20 19
9 16 15 9 8 9 10 13 16 18 20 23 24 24 24 24 25 24 23 22 21 21 23 24 20 19 16 15 17 19 18 17 18 17 17 18 17 17 18 17 19 21 20 22
10 11 14 20 17 15 21 24 27 25 25 24 22 25 26 27 26 25 24 23 23 23 23 24 21 18 19 17 17 18 19 17 16 16 16 16 18 19 21 24 24 27 30 27
15 10 16 24 22 19 27 30 27 24 24 26 27 24 26 28 27 28 27 24 23 23 22 22 22 21 21 18 16 18 19 19 17 19 17 16 17 18 20 18 22 25 27 27
23 16 25 22 21 21 21 26 26 27 26 26 29 27 25 25 25 24 25 25 23 22 22 22 21 23 20 17 17 19 18 23 19 16 16 17 18 18 18 15 21 23 24 27
22 21 29 31 27 28 24 23 25 28 26 26 23 24 23 25 25 26 25 23 22 21 22 22 22 24 19 17 18 18 17 16 16 16 17 19 19 14 12 14 18 21 22 26
21 19 21 24 29 29 25 25 23 27 25 24 24 23 24 25 27 26 25 24 21 23 23 22 21 23 17 16 18 17 17 22 21 16 15 16 16 11 13 15 17 18 20 21
20 27 26 28 27 28 28 27 26 28 28 27 27 26 25 24 25 25 24 22 21 24 24 23 24 19 17 17 18 17 15 15 19 18 15 13 15 14 13 14 14 18 20 20
23 27 28 28 29 28 30 28 27 28 28 28 27 25 25 24 26 26 25 23 22 22 21 20 19 17 20 21 19 17 16 16 16 16 15 15 15 15 9 12 15 17 20 21
21 25 26 27 28 28 28 28 27 27 26 25 24 25 24 24 24 24 23 22 21 23 23 17 21 22 17 15 18 15 16 17 17 18 17 19 16 12 11 12 14 16 18 20
25 25 25 26 26 25 26 25 25 25 25 24 24 23 24 24 22 22 21 23 21 22 20 19 20 19 20 19 22 15 14 15 16 14 12 15 15 12 10 13 15 15 17 18
26 25 26 26 26 25 24 24 24 24 25 23 23 24 24 24 22 21 22 21 21 18 19 22 19 15 12 14 15 12 15 16 15 14 14 14 15 11 10 12 12 13 17 17
27 27 27 26 25 25 23 22 21 21 22 22 22 22 22 22 20 19 20 22 20 22 18 14 13 16 16 20 15 15 16 16 15 15 14 12 9 8 10 12 12 14 14 17
27 27 27 25 24 25 24 23 22 20 22 22 22 21 20 20 18 17 19 16 14 16 16 14 17 20 21 16 12 14 14 12 13 11 8 8 7 9 11 12 13 12 15 17
28 25 25 24 23 22 23 24 21 22 21 22 21 21 19 19 18 15 16 21 21 18 13 13 14 18 20 6 8 6 9 11 11 10 8 8 8 9 11 13 15 13 14 17
27 27 24 23 23 22 23 21 20 19 19 20 18 18 20 19 17 18 14 14 18 18 11 15 17 17 2 5 3 3 1 2 4 6 9 11 10 10 10 12 13 14 13 15
26 24 22 23 22 21 23 21 18 13 15 16 18 16 15 13 10 14 14 16 13 16 14 12 11 11 11 8 7 8 9 9 9 11 7 8 9 11 11 12 13 14 15 14
22 27 23 22 21 21 20 16 17 17 16 17 10 13 13 12 13 13 13 10 9 9 10 10 8 10 4 7 8 8 8 8 8 9 11 11 7 7 9 10 12 13 14 14
Wind_Direction
258 273 273 275 254 234 232 242 244 266 259 288 334 357 347 346 1 343 339 58 41 8 353 341 325 320 317 310 310 312 311 309 302 305 305 298 298 297 296 296 296 295 297 295
270 258 261 266 259 253 247 252 255 263 271 70 207 331 337 321 318 317 318 326 333 332 322 312 306 303 306 303 301 307 306 300 299 304 298 295 297 300 300 298 297 297 294 293
269 255 316 284 250 241 248 250 257 267 280 342 323 335 314 302 294 287 277 306 311 304 296 294 292 289 292 292 293 300 299 300 298 293 293 294 297 298 298 297 299 295 295 293
279 312 270 283 17 82 272 268 218 265 297 333 324 307 299 294 319 326 297 294 295 288 280 279 276 280 280 283 287 290 294 293 291 289 290 291 294 293 295 296 295 296 296 294
248 225 290 220 323 27 17 267 206 244 293 305 322 328 271 193 241 285 278 276 275 273 270 269 271 274 275 280 280 282 285 285 287 285 289 290 292 292 292 294 293 295 295 297
178 250 270 171 186 149 141 277 97 138 299 309 332 304 283 235 299 299 295 288 282 275 271 267 268 268 271 274 274 277 276 275 273 276 282 287 288 290 290 286 289 296 298 298
239 255 270 165 162 130 293 292 299 309 299 295 277 249 284 292 292 290 289 295 293 283 275 272 270 267 270 272 270 269 269 269 273 276 277 277 280 282 285 286 287 288 295 296
211 261 276 162 154 224 236 253 265 273 276 283 282 286 286 288 287 290 293 295 293 289 291 287 280 271 270 273 275 269 274 278 282 279 277 282 282 284 281 281 287 293 296 299
223 243 187 208 237 254 230 265 269 268 281 287 290 291 292 290 289 289 289 288 290 284 287 282 277 274 275 281 279 287 285 284 288 284 278 276 279 280 283 288 281 294 294 297
326 270 257 257 260 246 257 259 275 273 278 283 284 286 285 282 283 288 287 284 284 283 287 285 275 272 277 280 284 287 289 288 285 281 285 282 281 280 281 287 288 286 290 292
262 281 292 272 248 242 273 288 284 279 279 279 279 279 278 280 283 283 281 280 278 278 281 280 282 278 271 285 290 287 284 282 280 281 281 280 277 279 275 276 273 290 305 302
279 280 264 276 276 280 283 286 284 284 284 276 268 274 277 277 277 277 277 278 278 277 275 277 279 277 281 277 276 276 279 279 278 283 285 282 284 288 283 290 297 307 307 305
264 263 244 266 277 273 276 278 277 273 267 269 274 273 273 273 275 276 278 278 274 274 276 278 278 276 276 274 269 269 271 274 276 281 278 274 282 284 291 294 300 309 310 308
251 273 287 274 271 274 262 269 274 279 274 270 271 274 267 266 271 270 268 267 270 269 270 271 273 273 273 271 268 268 268 275 281 282 280 279 277 278 284 297 310 312 312 312
268 249 252 272 286 282 277 277 276 276 275 272 263 258 262 263 264 263 263 262 263 264 264 265 266 269 269 264 267 267 268 271 271 271 269 271 274 273 293 295 299 303 309 312
281 275 272 267 272 277 279 278 272 277 278 277 275 269 264 264 265 265 265 262 259 262 261 259 256 260 260 252 258 265 264 271 274 275 281 283 283 279 281 294 300 302 307 307
286 295 294 290 288 286 282 278 274 274 278 278 276 276 274 270 269 269 269 263 250 251 252 254 259 260 253 250 249 259 262 262 270 279 281 282 281 271 278 293 296 304 302 305
266 272 274 273 276 280 285 285 283 281 281 282 281 280 279 278 276 278 277 275 270 264 256 252 255 257 256 258 255 251 250 254 257 263 266 271 273 263 276 293 302 303 305 306
276 280 282 282 282 282 284 284 284 285 285 285 285 281 279 277 278 279 281 277 271 269 269 261 261 274 276 266 265 247 241 246 256 258 258 267 281 284 289 294 295 305 306 308
290 287 286 285 285 284 286 286 286 286 284 284 284 283 280 278 278 278 277 274 270 268 271 266 266 260 258 257 270 271 264 260 263 262 265 259 255 255 273 300 308 306 305 307
297 295 292 291 291 290 286 286 287 285 285 285 283 281 281 281 279 278 277 277 276 273 269 264 263 261 253 254 262 270 265 263 262 260 264 269 272 274 293 295 299 302 306 306
303 300 297 296 293 291 289 286 283 282 283 284 282 281 282 282 280 275 265 265 276 281 280 266 256 260 256 254 247 241 242 245 249 255 254 253 236 265 286 293 293 302 305 309
303 301 299 298 297 295 293 288 286 282 280 279 278 279 278 277 279 279 281 277 277 273 272 262 258 262 263 263 248 230 233 239 250 248 227 216 240 268 283 288 295 302 309 309
305 308 308 306 302 298 296 292 289 283 277 274 272 271 273 280 280 265 260 274 286 300 295 275 264 263 265 264 245 246 241 247 238 215 204 239 256 273 289 290 296 301 304 308
313 311 311 309 306 304 304 298 291 291 282 278 279 273 266 264 260 274 275 267 275 286 288 282 286 283 243 110 144 157 187 201 199 219 240 252 266 277 282 288 290 300 307 315
314 312 313 311 308 309 307 306 300 326 333 333 317 317 318 314 296 286 279 276 264 261 266 259 259 266 267 256 231 232 232 242 267 288 264 238 252 260 275 289 294 303 309 308
321 324 320 326 324 316 317 6 356 339 337 320 344 349 345 342 336 339 330 318 309 292 273 266 262 272 265 212 237 226 223 235 255 248 249 272 287 292 296 292 295 305 308 308